#timestamp,LO_Frequency,Hit,StdDev 
1653033615.7,286046999.8,N
1653033635.6,286047002.4,N
1653033655.4,286047002.5,N
1653033675.2,286047000.2,N
1653033695.1,286047002.8,N
1653033696.0,286047002.8,N
1653033715.8,286046999.9,N
1653033765.7,286046998.1,E
1653033775.6,286047002.8,N
1653033795.5,286047004.4,P
1653033815.3,286047001.3,N
1653033835.1,286047004.1,Y
1653033855.9,286046999.8,P
1653033875.7,286047000.4,N
1653033895.5,286047000.4,N
1653033915.4,286047000.6,N
1653033935.2,286047000.1,N
1653033955.1,286046999.9,N
1653033956.0,286046999.9,N
1653033975.8,286047000.6,N
1653033995.6,286047000.9,N
1653034015.5,286047001.0,N
1653034035.3,286046999.9,N
1653034055.1,286047000.2,N
1653034075.9,286047002.7,Y
1653034095.7,286047000.8,P
1653034115.6,286046998.1,P
1653034135.4,286046998.7,N
1653034155.2,286046998.1,N
1653034175.1,286046998.4,N
1653034176.0,286046998.4,N
1653034195.8,286046998.4,N
1653034215.7,286046998.7,N
1653034235.5,286046998.4,N
1653034255.3,286047000.8,N
1653034275.2,286046998.1,N
1653034295.0,286046998.7,N
1653034295.9,286046998.7,N
1653034315.7,286046999.1,N
1653034335.6,286046999.0,N
1653034355.4,286046998.6,N
1653034375.3,286046998.6,N
1653034395.1,286046998.4,N
1653034396.0,286046998.4,N
1653034415.8,286047000.5,N
1653034435.7,286047001.1,N
1653034455.5,286046998.9,N
1653034475.3,286046998.2,N
1653034495.2,286046998.1,N
1653034515.0,286046998.7,N
1653034515.9,286046998.7,N
1653034535.8,286046998.1,N
1653034555.6,286047001.0,N
1653034575.4,286046998.1,N
1653034595.3,286046998.4,N
1653034615.1,286047001.2,N
1653034635.9,286046998.7,N
1653034655.7,286046999.1,N
1653034675.5,286046996.7,Y
1653034695.4,286046998.4,P
1653034715.2,286046999.3,N
1653034735.0,286046998.3,P
1653034735.9,286046998.3,Y
1653034755.8,286046999.7,P
1653034775.6,286047000.5,N
1653034795.5,286047001.0,N
1653034815.3,286047000.9,N
1653034835.1,286047000.5,N
1653034855.9,286047000.9,N
1653034875.7,286047000.4,N
1653034895.5,286047000.4,N
1653034915.4,286047000.4,N
1653034935.2,286047002.8,Y
1653034955.1,286047000.2,P
1653034956.0,286047000.2,N
1653034975.8,286047000.2,N
1653034995.6,286047000.0,N
1653035015.5,286046999.7,Y
1653035035.3,286047000.1,P
1653035055.2,286047002.6,P
1653035075.9,286047000.7,N
1653035095.7,286047000.9,N
1653035115.6,286047000.5,N
1653035135.4,286047000.3,N
1653035155.2,286047000.4,N
1653035175.1,286047000.6,N
1653035176.0,286047000.6,N
1653035195.8,286047001.1,N
1653035215.7,286047000.9,N
1653035235.5,286047000.6,N
1653035255.3,286047000.6,N
1653035275.2,286047000.0,N
1653035295.0,286047000.7,N
1653035295.9,286047000.7,N
1653035315.8,286047000.6,N
1653035335.6,286047000.9,N
1653035355.4,286047000.7,N
1653035375.3,286047000.3,N
1653035395.1,286047002.8,Y
1653035415.8,286046998.6,P
1653035435.7,286047000.7,N
1653035455.5,286047000.8,N
1653035475.4,286047001.1,N
1653035495.2,286047000.2,N
1653035515.0,286047000.0,N
1653035515.9,286047000.0,N
1653035535.8,286047001.2,N
1653035555.6,286047000.9,N
1653035575.5,286047000.4,N
1653035595.3,286047002.4,Y
1653035615.1,286047002.5,P
1653035635.9,286047002.5,N
1653035655.7,286047002.5,N
1653035675.6,286047002.1,N
1653035695.4,286047004.4,Y
1653035715.2,286047000.1,P
1653035735.1,286047002.8,N
1653035736.0,286047002.8,N
1653035755.8,286046998.4,N
1653035775.6,286046998.8,N
1653035795.5,286046999.6,N
1653035815.3,286046999.3,N
1653035835.2,286046997.4,N
1653035855.9,286046997.6,N
1653035875.7,286046997.9,N
1653035895.6,286046998.0,N
1653035915.4,286046997.5,N
1653035935.2,286046994.9,N
1653035955.1,286046995.5,N
1653035956.0,286046995.5,N
1653035975.8,286046996.3,N
1653035995.7,286046993.8,N
1653036015.5,286046993.3,N
1653036035.3,286046995.7,N
1653036055.2,286046995.6,N
1653036075.0,286046995.8,N
1653036075.9,286046995.8,N
1653036095.8,286046995.3,N
1653036115.6,286046995.1,N
1653036135.4,286046996.0,N
1653036155.3,286046993.9,N
1653036175.1,286046994.1,N
1653036195.8,286046994.3,N
1653036215.7,286046993.5,N
1653036235.5,286046996.1,N
1653036255.4,286046995.1,N
1653036275.2,286046995.3,N
1653036295.0,286046995.0,N
1653036295.9,286046995.0,N
1653036315.8,286046996.0,N
1653036335.6,286046995.2,Y
1653036355.5,286047000.5,P
1653036375.3,286047001.2,N
1653036395.1,286047000.6,N
1653036415.9,286047000.1,N
1653036435.7,286047000.7,N
1653036455.5,286046999.9,N
1653036475.4,286047001.2,N
1653036495.2,286046996.6,N
1653036515.1,286046999.0,N
1653036516.0,286046999.0,N
1653036535.8,286046998.1,N
1653036555.6,286046999.3,N
1653036575.5,286046999.4,N
1653036595.3,286046998.7,N
1653036615.1,286046999.3,N
1653036635.9,286046998.3,N
1653036655.7,286046999.2,N
1653036675.6,286046999.0,N
1653036695.4,286046999.6,N
1653036715.2,286046998.4,N
1653036735.1,286046999.3,N
1653036736.0,286046999.3,N
1653036755.8,286046996.9,N
1653036775.7,286046994.9,Y
1653036795.5,286046996.7,P
1653036815.3,286046996.8,N
1653036835.2,286046998.2,N
1653036855.0,286046998.3,N
1653036855.9,286046998.3,N
1653036875.8,286046998.1,N
1653036895.6,286046998.2,N
1653036915.4,286046998.2,N
1653036935.3,286046998.4,N
1653036955.1,286046998.7,N
1653036975.8,286046999.5,N
1653036995.7,286046996.9,Y
1653037015.5,286046998.2,P
1653037035.4,286046999.7,P
1653037055.2,286046999.7,N
1653037075.0,286047002.5,Y
1653037075.9,286047002.5,P
1653037095.8,286047002.0,N
1653037115.6,286047000.2,N
1653037135.5,286047000.3,N
1653037155.3,286047000.0,N
1653037175.1,286047000.0,N
1653037195.9,286047000.5,N
